Weather History for KMFV - March, 2014

Change the Weather History Date:

Saturday, March 29, 2014

  Actual Average (KWAL) Record (KWAL)
Temperature  
Mean Temperature 64 °F 49 °F  
Max Temperature 69 °F 58 °F 84 °F (1989)
Min Temperature 60 °F 40 °F 26 °F (2015)
Degree Days  
Heating Degree Days 0    
Month to date heating degree days  
Since 1 July heating degree days  
Cooling Degree Days 0    
Month to date cooling degree days  
Year to date cooling degree days  
Growing Degree Days 14 (Base 50)    
Moisture  
Dew Point 60 °F    
Average Humidity 87    
Maximum Humidity 94    
Minimum Humidity 73    
Precipitation  
Precipitation 0.56 in 0.13 in 1.39 in (2003)
Month to date precipitation 3.74  
Year to date precipitation 9.54  
Sea Level Pressure  
Sea Level Pressure 29.93 in    
Wind  
Wind Speed 10 mph (South)    
Max Wind Speed 18 mph    
Max Gust Speed 28 mph    
Visibility 8 miles    
Events Rain    
T = Trace of Precipitation, MM = Missing Value Source: NWS Daily Summary

Daily Weather History Graph

Daily Weather History Graph

Search for Another Location

Airport or City:

Trip Planner

Search our weather history database for the weather conditions in past years. The results will help you decide how hot, cold, wet, or windy it might be!

Date:

Astronomy

Mar. 29, 2014 Rise Set
Actual Time 6:52 AM EDT 7:23 PM EDT
Civil Twilight 6:26 AM EDT 7:49 PM EDT
Nautical Twilight 5:55 AM EDT 8:20 PM EDT
Astronomical Twilight 5:24 AM EDT 8:52 PM EDT
Moon 5:58 AM EDT (3/29) 6:26 PM EDT (3/29)
Length of Visible Light 13h 22m
Length of Day
12h 30m
Waning Crescent, 2% of the Moon is Illuminated
Mar 29
Waning Crescent
Mar 30
New
Apr 7
First Quarter
Apr 15
Full
Apr 22
Last Quarter

Hourly Weather History & Observations

Time (EDT) Temp. Dew Point Humidity Pressure Visibility Wind Dir Wind Speed Gust Speed Precip Events Conditions
12:16 AM 64.4 °F 59.0 °F 83% 30.15 in 10.0 mi SSW 13.8 mph 19.6 mph N/A   Light Drizzle
12:36 AM 64.4 °F 59.0 °F 83% 30.15 in 10.0 mi South 8.1 mph - N/A   Light Drizzle
12:56 AM 64.4 °F 59.0 °F 83% 30.15 in 10.0 mi SSW 8.1 mph - N/A Rain Light Rain
1:16 AM 64.4 °F 59.0 °F 83% 30.15 in 10.0 mi SSW 9.2 mph - N/A Rain Light Rain
1:36 AM 64.4 °F 60.8 °F 88% 30.15 in 10.0 mi SSW 5.8 mph - N/A Rain Rain
1:56 AM 64.4 °F 60.8 °F 88% 30.14 in 10.0 mi SSW 9.2 mph - N/A Rain Light Rain
2:16 AM 64.4 °F 60.8 °F 88% 30.14 in 10.0 mi SSW 8.1 mph - 0.02 in Rain Light Rain
2:36 AM 64.4 °F 60.8 °F 88% 30.13 in 10.0 mi SSW 9.2 mph - 0.03 in Rain Rain
2:56 AM 64.4 °F 60.8 °F 88% 30.12 in 10.0 mi SSW 8.1 mph - N/A   Drizzle
3:16 AM 64.4 °F 60.8 °F 88% 30.12 in 7.0 mi SSW 9.2 mph - 0.01 in Rain Rain
3:36 AM 64.4 °F 60.8 °F 88% 30.12 in 10.0 mi South 8.1 mph - 0.05 in Rain Rain
3:56 AM 64.4 °F 60.8 °F 88% 30.11 in 7.0 mi South 6.9 mph - N/A Rain Rain
4:16 AM 64.4 °F 60.8 °F 88% 30.10 in 10.0 mi SSW 10.4 mph 16.1 mph 0.03 in Rain Light Rain
4:36 AM 64.4 °F 60.8 °F 88% 30.10 in 10.0 mi SSW 10.4 mph 16.1 mph 0.05 in Rain Light Rain
4:56 AM 62.6 °F 59.0 °F 88% 30.10 in 10.0 mi South 6.9 mph - N/A Rain Light Rain
5:16 AM 62.6 °F 60.8 °F 94% 30.10 in 7.0 mi South 6.9 mph - 0.05 in Rain Rain
5:36 AM 62.6 °F 60.8 °F 94% 30.10 in 7.0 mi South 3.5 mph - 0.13 in Rain Rain
5:56 AM 62.6 °F 60.8 °F 94% 30.10 in 7.0 mi South 5.8 mph - N/A Rain Rain
6:16 AM 62.6 °F 60.8 °F 94% 30.09 in 7.0 mi South 6.9 mph - 0.03 in Rain Rain
6:36 AM 62.6 °F 60.8 °F 94% 30.09 in 10.0 mi South 6.9 mph - 0.06 in Rain Rain
6:56 AM 62.6 °F 60.8 °F 94% 30.09 in 7.0 mi SSE 6.9 mph - N/A Rain Light Rain
7:16 AM 62.6 °F 60.8 °F 94% 30.09 in 10.0 mi South 5.8 mph - 0.02 in Rain Light Rain
7:36 AM 62.6 °F 59.0 °F 88% 30.08 in 10.0 mi SSE 6.9 mph - 0.06 in Rain Light Rain
7:56 AM 62.6 °F 59.0 °F 88% 30.08 in 10.0 mi SSE 6.9 mph - N/A   Scattered Clouds
8:16 AM 62.6 °F 59.0 °F 88% 30.08 in 10.0 mi SSE 10.4 mph - 0.01 in Rain Light Rain
8:36 AM 60.8 °F 57.2 °F 88% 30.07 in 10.0 mi SSE 9.2 mph - 0.02 in Rain Light Rain
8:56 AM 60.8 °F 57.2 °F 88% 30.07 in 10.0 mi SSE 9.2 mph - N/A   Drizzle
9:16 AM 62.6 °F 59.0 °F 88% 30.07 in 10.0 mi SSE 10.4 mph - 0.01 in   Drizzle
9:36 AM 62.6 °F 59.0 °F 88% 30.07 in 7.0 mi South 6.9 mph - 0.01 in   Drizzle
9:57 AM 62.6 °F 60.8 °F 94% 30.06 in 7.0 mi South 8.1 mph - N/A   Light Drizzle
10:16 AM 62.6 °F 60.8 °F 94% 30.05 in 7.0 mi South 8.1 mph - N/A   Drizzle
10:36 AM 64.4 °F 60.8 °F 88% 30.05 in 7.0 mi South 5.8 mph - N/A   Light Drizzle
10:56 AM 64.4 °F 60.8 °F 88% 30.04 in 7.0 mi SSE 6.9 mph - N/A   Light Drizzle
11:16 AM 64.4 °F 60.8 °F 88% 30.03 in 7.0 mi SSE 9.2 mph - N/A   Scattered Clouds
11:36 AM 64.4 °F 60.8 °F 88% 30.01 in 10.0 mi South 12.7 mph 17.3 mph N/A   Clear
11:56 AM 64.4 °F 60.8 °F 88% 30.00 in 10.0 mi South 10.4 mph - N/A   Scattered Clouds
12:16 PM 66.2 °F 60.8 °F 83% 29.99 in 10.0 mi South 10.4 mph 17.3 mph N/A   Scattered Clouds
12:36 PM 68.0 °F 60.8 °F 78% 29.98 in 10.0 mi South 12.7 mph 18.4 mph N/A   Clear
12:56 PM 68.0 °F 60.8 °F 78% 29.97 in 10.0 mi South 12.7 mph 19.6 mph N/A   Clear
1:16 PM 69.8 °F 60.8 °F 73% 29.96 in 10.0 mi South 9.2 mph 20.7 mph N/A   Clear
1:36 PM 69.8 °F 60.8 °F 73% 29.94 in 10.0 mi South 13.8 mph 21.9 mph N/A   Clear
1:56 PM 69.8 °F 60.8 °F 73% 29.93 in 10.0 mi South 10.4 mph 17.3 mph N/A   Clear
2:16 PM 69.8 °F 60.8 °F 73% 29.91 in 10.0 mi South 16.1 mph 24.2 mph N/A   Clear
2:36 PM 69.8 °F 62.6 °F 78% 29.89 in 10.0 mi SSE 16.1 mph 20.7 mph N/A   Clear
2:56 PM 68.0 °F 60.8 °F 78% 29.88 in 10.0 mi South 10.4 mph 18.4 mph N/A   Clear
3:16 PM 66.2 °F 60.8 °F 83% 29.86 in 10.0 mi SSE 9.2 mph - N/A   Scattered Clouds
3:36 PM 66.2 °F 60.8 °F 83% 29.85 in 10.0 mi SSE 9.2 mph 18.4 mph N/A   Scattered Clouds
3:56 PM 66.2 °F 60.8 °F 83% 29.84 in 7.0 mi SSE 10.4 mph 20.7 mph N/A Rain Light Rain
4:16 PM 64.4 °F 60.8 °F 88% 29.83 in 3.0 mi South 12.7 mph 21.9 mph 0.02 in Rain Rain
4:36 PM 64.4 °F 60.8 °F 88% 29.81 in 4.0 mi SSE 12.7 mph 23.0 mph 0.06 in Rain Rain
4:56 PM 62.6 °F 60.8 °F 94% 29.80 in 7.0 mi South 16.1 mph 27.6 mph N/A Rain Light Rain
5:17 PM 64.4 °F 60.8 °F 88% 29.79 in 7.0 mi South 12.7 mph 21.9 mph 0.03 in Rain Rain
5:36 PM 62.6 °F 60.8 °F 94% 29.78 in 10.0 mi South 11.5 mph 19.6 mph 0.05 in Rain Light Rain
5:56 PM 62.6 °F 60.8 °F 94% 29.76 in 5.0 mi SSE 13.8 mph 18.4 mph N/A Rain Rain
6:16 PM 62.6 °F 60.8 °F 94% 29.77 in 10.0 mi SSE 11.5 mph 23.0 mph 0.03 in Rain Light Rain
6:36 PM 64.4 °F 60.8 °F 88% 29.76 in 7.0 mi South 13.8 mph 19.6 mph 0.03 in   Light Drizzle
6:56 PM 62.6 °F 60.8 °F 94% 29.75 in 7.0 mi South 10.4 mph 23.0 mph N/A   Overcast
7:16 PM 62.6 °F 59.0 °F 88% 29.74 in 5.0 mi South 11.5 mph 21.9 mph N/A   Overcast
7:36 PM 62.6 °F 59.0 °F 88% 29.72 in 7.0 mi SSE 12.7 mph - 0.01 in Rain Light Rain
7:56 PM 62.6 °F 59.0 °F 88% 29.71 in 10.0 mi SSE 12.7 mph 18.4 mph N/A   Overcast
8:16 PM 62.6 °F 60.8 °F 94% 29.69 in 10.0 mi SSE 18.4 mph 27.6 mph N/A   Overcast
8:36 PM 62.6 °F 59.0 °F 88% 29.68 in 4.0 mi South 16.1 mph 24.2 mph N/A   Overcast
8:56 PM 62.6 °F 59.0 °F 88% 29.67 in 7.0 mi South 13.8 mph 25.3 mph N/A   Overcast
9:16 PM 62.6 °F 59.0 °F 88% 29.66 in 5.0 mi South 13.8 mph 26.5 mph N/A   Overcast
9:36 PM 62.6 °F 59.0 °F 88% 29.66 in 4.0 mi South 11.5 mph 27.6 mph N/A   Overcast
9:56 PM 60.8 °F 57.2 °F 88% 29.65 in 1.5 mi South 12.7 mph 25.3 mph N/A   Overcast
10:16 PM 60.8 °F 57.2 °F 88% 29.64 in 1.5 mi South 9.2 mph 17.3 mph N/A   Overcast
10:36 PM 60.8 °F 57.2 °F 88% 29.63 in 1.5 mi South 9.2 mph 16.1 mph N/A   Overcast
10:56 PM 60.8 °F 57.2 °F 88% 29.63 in 1.0 mi South 9.2 mph 18.4 mph N/A   Overcast
11:16 PM 60.8 °F 57.2 °F 88% 29.62 in 1.0 mi South 8.1 mph - N/A   Overcast
11:36 PM 60.8 °F 59.0 °F 94% 29.61 in 1.2 mi South 8.1 mph - N/A   Overcast
11:56 PM 62.6 °F 60.8 °F 94% 29.60 in 1.2 mi South 8.1 mph - N/A   Overcast